C/2010 R1 ( LINEAR )

Japanese version
Home page
Updated on June 9, 2013

---------------------------------------------------------------------

* Profile

Discovery Date September 4, 2010
Magnitude 20.5 mag
Discoverer Lincoln Laboratory Near-Earth Asteroid Research project

* Pictures

* Orbital Elements

Epoch 2012 June 2.0 TT = JDT 2456080.5
T 2012 May 18.89677 TT                                  MPC
q   5.6214179            (2000.0)            P               Q
z  -0.0006514      Peri.  114.49624     -0.63355786     -0.76579300
 +/-0.0000007      Node   343.64942     -0.77180993     +0.63550503
e   1.0036616      Incl.  156.93340     +0.05398030     +0.09846031
From 1198 observations 2010 Sept. 4-2013 Apr. 7, mean residual 0".6.

* Magnitudes Graph

        m1 = 6.0 + 5 log d + 10.0 log r

---------------------------------------------------------------------

The orbital elements are published on M.P.E.C. 2013-G31.
The magnitudes graphs are made with Comet for Windows.

---------------------------------------------------------------------

Copyright(C) Seiichi Yoshida (comet@aerith.net). All rights reserved.